{"data":{"norad_id":58390,"intl_designator":"2023-178S","name":"STARLINK-30868","alt_names":[],"object_type":"PAYLOAD","status":"ACTIVE","operator":null,"country":"US","launch_date":"2023-11-20","launch_site_code":"AFWTR","launch_vehicle":null,"mission":null,"orbit_class":"UNKNOWN","rcs_meters":null,"size_class":null,"mass_kg":null,"dimensions":null,"purposes":["comms"],"wikipedia_slug":null,"has_3d_model":false,"image_url":null,"decayed_at":null,"tle_current":{"epoch":"2026-05-24T23:47:37.658976Z","epoch_age_seconds":69728,"freshness":"FRESH","line1":"1 58390U 23178S   26144.99140809  .00004149  00000+0  13396-3 0  9995","line2":"2 58390  53.1604   5.9460 0000668  71.0594 289.0481 15.34370536141584","mean_motion":15.34370536,"eccentricity":6.68e-5,"inclination_deg":53.1604,"raan_deg":5.946,"arg_perigee_deg":71.0594,"mean_anomaly_deg":289.0481,"bstar":0.00013396,"rev_number":14158,"period_min":93.849560208187,"perigee_km":462.33384084769,"apogee_km":463.24778880375,"semimajor_km":6840.9278148257,"source":"CELESTRAK","updated_at":"2026-05-25T13:38:18.615261Z"}}}